Location: D�pe
(52.6057°N, 8.1808°E)
Time: 14:39:29
(UTC+00:00)

Lacrosse 5 - Pass Details

Date: 29 October 2020
Orbit: 716 x 723 km, 57.0° (Epoch: 06 November)

Event Time Altitude Azimuth Distance (km) Brightness Sun altitude
Rises 19:54:44 0° 298° (WNW) 3,127 6.2 -35.2°
Reaches altitude 10° 19:57:08 10° 295° (WNW) 2,205 5.2 -35.5°
Enters shadow 19:59:23 26° 287° (WNW) 1,393 3.8 -35.8°
